Namest Nad Oslav, Czech Republic

10:56 PM CET on December 09, 2019 (GMT +0100)
Namest

Weather History for LKNA - August, 2019

Change the Weather History Date:

Saturday, August 17, 2019

  Actual Average Record
Temperature  
Mean Temperature 61 °F -  
Max Temperature 71 °F - - ()
Min Temperature 51 °F - - ()
Degree Days  
Heating Degree Days 4    
Growing Degree Days 11 (Base 50)    
Moisture  
Dew Point 53 °F    
Average Humidity 67    
Maximum Humidity 100    
Minimum Humidity 40    
Precipitation  
Precipitation 0.00 in - - ()
Sea Level Pressure  
Sea Level Pressure 30.01 in    
Wind  
Wind Speed 5 mph ()    
Max Wind Speed 9 mph    
Max Gust Speed -    
Visibility 13.5 miles    
Events Fog    
T = Trace of Precipitation, MM = Missing Value Source: Averaged Metar Reports

Daily Weather History Graph

Daily Weather History Graph

Search for Another Location

Airport or City:

Astronomy

Aug. 17, 2019 Rise Set
Actual Time 5:49 AM CEST 8:08 PM CEST
Civil Twilight 5:14 AM CEST 8:43 PM CEST
Nautical Twilight 4:30 AM CEST 9:27 PM CEST
Astronomical Twilight 3:40 AM CEST 10:17 PM CEST
Moon 9:20 PM CEST (8/17) 7:25 AM CEST (8/17)
Length of Visible Light 15h 29m
Length of Day
14h 19m
Full, 97% of the Moon is Illuminated
Aug 17
Full
Aug 23
Last Quarter
Aug 30
New
Sep 6
First Quarter
Sep 14
Full

Hourly Weather History & Observations

Time (CEST) Temp. Dew Point Humidity Pressure Visibility Wind Dir Wind Speed Gust Speed Precip Events Conditions
12:00 AM 57 °F 50 °F 72% 30.06 in 12 mi NW 4.5 mph - -  
12:00 AM 59.0 °F 51.8 °F 77% 30.06 in - NNW 3.5 mph - N/A   Clear
1:00 AM 57 °F 50 °F 72% 30.06 in 12 mi NW 2.2 mph - -  
1:00 AM 57.2 °F 51.8 °F 82% 30.06 in - Variable 2.3 mph - N/A   Clear
2:00 AM 53.6 °F 51.8 °F 94% 30.06 in - North 4.6 mph - N/A   Clear
3:00 AM 55 °F 50 °F 78% 30.06 in 9 mi NNW 6.7 mph - -   Clear
3:00 AM 53.6 °F 51.8 °F 94% 30.06 in - North 6.9 mph - N/A   Clear
4:00 AM 56 °F 50 °F 75% 30.04 in 12 mi North 4.5 mph - -  
4:00 AM 53.6 °F 51.8 °F 94% 30.04 in - North 4.6 mph - N/A   Clear
5:00 AM 56 °F 50 °F 75% 30.04 in 9 mi North 6.7 mph - -   Clear
5:00 AM 51.8 °F 50.0 °F 94% 30.04 in - North 5.8 mph - N/A   Clear
6:00 AM 52 °F 50 °F 89% 30.06 in 6 mi North 6.7 mph - - Fog Patches of Fog
6:00 AM 48.2 °F 48.2 °F 100% 30.04 in 6.2 mi North 5.8 mph - N/A Fog Shallow Fog
7:00 AM 51.8 °F 50.0 °F 94% 30.04 in 6.2 mi NE 3.5 mph - N/A Fog Shallow Fog
8:00 AM 58 °F 53 °F 78% 30.04 in 12 mi NNE 2.2 mph - -   Clear
8:00 AM 57.2 °F 53.6 °F 88% 30.04 in - Variable 2.3 mph - N/A   Clear
9:00 AM 60 °F 54 °F 76% 30.04 in 16 mi SE 4.5 mph - -   Clear
9:00 AM 60.8 °F 55.4 °F 82% 30.04 in - SE 5.8 mph - N/A   Clear
10:00 AM 63 °F 54 °F 65% 30.02 in 19 mi SSE 6.7 mph - -   Clear
10:00 AM 62.6 °F 55.4 °F 77% 30.04 in - SE 5.8 mph - N/A   Clear
11:00 AM 64 °F 54 °F 61% 30.03 in 19 mi SE 6.7 mph - -   Clear
11:55 AM 66.2 °F 53.6 °F 64% 30.04 in 6.2 mi South 6.9 mph - N/A   Mostly Cloudy
12:00 PM 65 °F 53 °F 56% 30.01 in 19 mi South 6.7 mph - -   Scattered Clouds
12:00 PM 66.2 °F 55.4 °F 68% 30.04 in 6.2 mi South 6.9 mph - N/A   Mostly Cloudy
1:00 PM 67 °F 51 °F 45% 29.99 in 19 mi South 8.9 mph - -   Overcast
1:00 PM 68.0 °F 53.6 °F 60% 30.04 in 6.2 mi SSW 8.1 mph - N/A   Mostly Cloudy
2:00 PM 69 °F 51 °F 41% 29.98 in 19 mi South 8.9 mph - -   Overcast
2:00 PM 69.8 °F 51.8 °F 53% 30.01 in 6.2 mi South 9.2 mph - N/A   Mostly Cloudy
3:00 PM 69 °F 53 °F 46% 29.97 in 19 mi SSW 4.5 mph - -   Scattered Clouds
3:00 PM 69.8 °F 51.8 °F 53% 30.01 in 6.2 mi South 6.9 mph - N/A   Mostly Cloudy
4:00 PM 71 °F 52 °F 40% 29.95 in 19 mi SSE 6.7 mph - -   Partly Cloudy
4:00 PM 71.6 °F 53.6 °F 53% 30.01 in - South 6.9 mph - N/A   Clear
5:00 PM 71 °F 52 °F 40% 29.94 in 19 mi SSE 6.7 mph - -   Mostly Cloudy
5:00 PM 71.6 °F 51.8 °F 50% 29.98 in - SSE 4.6 mph - N/A   Clear
6:00 PM 70 °F 54 °F 46% 29.94 in 19 mi ESE 6.7 mph - -   Mostly Cloudy
6:00 PM 69.8 °F 53.6 °F 56% 29.98 in - ESE 5.8 mph - N/A   Clear
7:00 PM 69 °F 54 °F 50% 29.94 in 19 mi SE 6.7 mph - -   Mostly Cloudy
8:00 PM 67 °F 55 °F 55% 29.94 in 19 mi SE 4.5 mph - -   Mostly Cloudy
8:00 PM 68.0 °F 55.4 °F 64% 29.98 in - SE 5.8 mph - N/A   Clear
9:00 PM 67 °F 54 °F 53% 29.95 in 19 mi SE 2.2 mph - -   Overcast
9:00 PM 66.2 °F 55.4 °F 68% 29.98 in - SSE 3.5 mph - N/A   Clear
10:00 PM 66 °F 53 °F 53% 29.93 in 19 mi SSE 4.5 mph - -   Overcast
10:00 PM 66.2 °F 53.6 °F 64% 29.98 in - SSE 5.8 mph - N/A   Clear
11:00 PM 66.2 °F 53.6 °F 64% 29.98 in - South 3.5 mph - N/A   Clear